Reflectivity
-20 -20 -20 -20 -20 -20 -20 -20 -20 -20 -20 -20 -20 -20 -20 -20 -20 -20 -20 -20 -20 -20 -20 -20 -20 -20 -20 -20 -20 -20 -20 -20 -20 -20 -20 -20 -20 -20 -20 -20 -20 -20 -20 -20 -20 -20 -20 -20 -20
-20 -20 -20 -20 -20 -20 -20 -20 -20 -20 -20 -20 -20 -20 -20 -20 -20 -20 -20 -20 -20 -20 -20 -20 -20 -20 -20 -20 -20 -20 -20 -20 -20 -20 -20 -20 -20 -20 -20 -20 -20 -20 -20 -20 -20 -20 -20 -20 -20
-20 -20 -20 -20 -20 -20 -20 -20 -20 -20 -20 -20 -20 -20 -20 -20 -20 -20 -20 -20 -20 -20 -20 -20 -20 -20 -20 -20 -20 -20 -20 -20 -20 -20 -20 -20 -20 -20 -20 -20 -20 -20 -20 -20 -20 -20 -20 -20 -20
-20 -20 -20 -20 -20 -20 -20 -20 -20 -20 -20 -20 -20 -20 -20 -20 -20 -20 -20 -20 -20 -20 -20 -20 -20 -20 -20 -20 -20 -20 -20 -20 -20 -20 -20 -20 -20 -20 -20 -20 -20 -20 -20 -20 -20 -20 -20 -20 -20
-20 -20 -20 -20 -20 -20 -20 -20 -20 -20 -20 -20 -20 -20 -20 -20 -20 -20 -20 -20 -20 -20 -20 -8 -20 -20 -20 -20 -20 -20 -20 -20 -20 -20 -20 -20 -20 -20 -20 -20 -20 -20 -20 -20 -20 -20 -20 -20 -20
-20 -20 -20 -20 -20 -20 -20 -20 -20 -20 -20 -20 -20 -20 -20 -20 -20 -20 -20 -20 -20 -20 -20 -4 -20 -20 -20 -20 -20 -20 -20 -20 -20 -20 -20 -20 -20 -20 -20 -20 -20 -20 -20 -20 -20 -20 -20 -20 -20
-20 -20 -20 -20 -20 -20 -20 -20 -20 -20 -20 -20 -20 -20 -20 -20 -20 -20 -20 -20 -20 -20 -20 -20 -20 -20 -20 -20 -20 -20 -20 -20 -20 -20 -20 -20 -20 -20 -20 -20 -20 -20 -20 -20 -20 -20 -20 -20 -20
-20 -20 -20 -20 -20 -20 -20 -20 -20 -20 -20 -20 -20 -20 -20 -20 -20 -20 -20 -1 -20 -20 -20 -6 -11 -20 -20 -20 -20 -20 -20 -20 -20 -20 -20 -20 -20 -20 -20 -20 -20 -20 -20 -20 -20 -20 -20 -20 -20
-20 -20 -20 -20 -20 -20 -20 -20 -20 -20 -20 -20 -20 -20 -20 -20 -20 -20 -20 -20 -20 -20 -20 -20 -20 -20 -20 -20 -20 -20 -20 -20 -20 -20 -20 -20 -20 -20 -20 -20 -20 -20 -20 -20 -20 -20 -20 -20 -20
-20 -20 -20 -20 -20 -20 -20 -20 -20 -20 -20 -20 -20 -20 -20 -20 -20 -20 -20 -20 -20 -20 -20 -20 -18 -20 -20 -20 -20 -11 -20 -20 -20 -20 -20 -20 -20 -20 -20 -20 -20 -20 -20 -20 -20 -20 -20 -20 -20
-20 -20 -20 -20 -20 -20 -20 -20 -20 -20 -20 -20 -20 -20 -20 -20 -20 -20 -20 -20 -20 -20 -20 -20 -20 -20 -20 -20 -20 -20 -20 -20 -18 -20 -20 -20 -20 -20 -20 -20 -20 -20 -20 -20 -20 -20 -20 -20 -20
-20 -20 -20 -20 -20 -20 -20 -20 -20 -20 -20 -20 -20 -20 -20 -20 -20 -20 -20 -20 -20 -20 -20 -20 -20 -20 -20 -20 -20 -20 -20 -20 -20 -20 -20 -20 -20 -20 -20 -20 -20 -20 -20 -20 -20 -20 -20 -20 -20
-20 -20 -15 -20 -20 -20 -20 -20 -20 -20 -20 -20 -20 -20 -20 -20 -20 -20 -20 -20 -20 -20 -20 -20 -20 -20 -20 -20 -20 -20 -18 3 -13 -6 -11 -20 -20 -20 -20 -20 -20 -20 -20 -20 -20 -20 -20 -20 -20
-20 -20 -20 -20 -20 -20 -20 -20 -20 -20 -20 -20 -20 -20 -20 -20 -20 -20 -20 -20 -20 -20 -20 -20 -20 -20 -18 -20 -20 -19 -20 -20 -18 -7 -15 -20 -20 -20 -20 -20 -20 -20 -20 -20 -20 -20 -20 -20 -20
-20 -20 -20 -20 -20 -20 -20 -20 -20 -20 -20 -20 -20 -20 -20 -20 -20 -20 -20 -20 -20 -20 -20 -20 -20 0 -20 -20 -20 -20 -20 -20 -20 -20 -20 -20 -20 -20 -20 -20 -20 -20 -20 -20 -20 -20 -20 -20 -20
-20 -20 -20 -20 -20 -20 -20 -20 -20 -20 -20 -20 -20 -20 -20 -20 -20 -20 -20 -20 -20 -20 -20 -20 -20 -20 -20 -20 -20 -20 -20 -20 -20 -20 -20 -20 -20 -20 -20 -20 -20 -20 -20 -20 -20 -14 -14 9 -7
-20 -20 -20 -20 -17 -20 -20 -20 -20 -20 -20 -20 -20 -20 -20 -20 -20 -20 -20 -20 -20 -20 -20 -20 -20 -20 -20 -20 -20 -20 -20 -20 -20 -20 -20 -20 -20 -20 -20 -20 -20 -20 -20 -20 -17 -20 -20 -7 -20
-20 -20 -20 -18 3 -10 -20 -20 -20 -20 -20 -20 -20 -20 -20 -20 -20 -20 -20 -20 -20 -20 -20 -20 -20 -20 -20 -20 -20 -20 -20 -2 -17 -20 -20 -20 -20 -20 -20 -20 -20 -20 -20 -20 -20 -20 -20 6 -20
-20 -20 -20 -20 6 4 -1 -19 -20 -20 -20 -20 -20 -20 -20 -20 -20 -20 -20 -20 -20 -20 -20 -20 -20 -20 -20 -20 -20 -20 -20 -20 -20 -20 -20 -20 -20 -20 -20 -20 -20 -20 -20 -20 -20 -20 -20 -20 -20
-20 -20 -20 -20 -20 -20 -20 -20 -20 -20 -20 -20 -20 -20 -20 -20 -20 -20 -20 -20 -20 -20 -20 -20 -20 -20 -20 -20 -20 -20 -20 -20 -20 -20 -20 -20 -20 -20 -20 -20 -20 -20 -20 -20 -20 -10 -20 -20 -20
-20 -20 -20 -20 -20 -20 -20 -20 -20 -20 -20 -20 -20 -20 -20 -20 -20 -20 -20 -20 -20 -20 -20 -20 -20 -20 -20 -20 -20 -20 -20 -20 -13 -14 -20 -14 -20 -20 -20 -20 -8 -9 -20 -6 -19 -20 -14 -8 -20
-20 -20 -20 -20 -20 -20 -13 -17 -20 -20 -20 -20 -20 -20 -20 -20 -20 -20 -20 -20 -20 -20 -20 -20 -20 -20 -20 -20 -17 -1 -20 19 -20 -16 -13 -7 -16 -20 -20 -18 -20 -20 -3 -19 -20 -16 -20 -20 0
-20 -20 -20 -8 -19 -20 -20 -20 -20 -20 -20 -20 -20 -20 -20 -20 -20 -20 -20 -20 -20 -20 -20 -20 -20 -20 -20 -20 -20 -20 -20 -20 -18 -20 -20 -20 -20 -20 -20 -14 -19 -20 -20 -20 9 -19 -20 -20 -20
-16 -18 -0 4 -20 -20 -20 -20 -20 -20 -20 -20 -20 -20 -20 -20 -20 -20 -20 -20 -20 -20 -20 -20 -20 -20 -20 -20 -20 -20 -16 36 -19 -20 -20 -20 -20 -5 -20 -20 -20 -20 -20 -20 -20 -20 -20 -20 -20
14 27 32 7 3 -20 -20 -20 -20 -20 -20 -20 -20 -20 -20 -20 -20 -20 -20 -20 -20 -20 -20 -20 -20 -20 -20 -20 -20 -20 5 13 -20 -20 -20 5 -20 -16 -20 -20 -20 -20 -20 -20 -20 -20 -20 -20 -20
-3 -10 -7 -8 -20 -20 -20 -20 -20 -20 -20 -20 -20 -20 -20 -20 -20 -20 -20 -20 -20 -20 -20 -20 -20 -20 -8 -7 -20 -20 23 -19 -20 11 14 12 1 -20 -20 -20 -20 -20 -20 -20 -20 -20 -20 -20 -20
23 26 31 27 27 12 -20 -20 -20 -20 -20 -20 -20 -20 -20 -20 -20 -20 -20 -20 -20 -20 -20 -20 7 -19 4 -6 -17 -18 -12 -20 -20 -20 -15 -20 -20 -20 -20 -20 -20 -20 -20 -20 -20 -20 -20 -20 -20
16 9 21 38 25 9 -20 -20 -20 -20 -20 -20 -19 2 -20 -20 -20 -20 -0 5 -20 -20 -20 -20 -3 -6 -4 -20 -20 1 19 -20 -20 -2 -17 -20 -20 -20 -20 -20 -20 -20 -20 -20 -20 -20 -20 -20 -20
23 26 33 20 10 -20 -20 -20 -20 -20 -20 -20 -20 -20 -20 -20 -20 -20 -20 -11 -20 -20 -20 -20 -20 -20 -20 -20 -20 -10 -20 -20 1 -17 -20 -18 -20 -20 -20 -20 -20 -20 -20 -20 -20 -20 -20 -20 -20
11 11 16 -14 -3 -20 -20 -20 -20 -20 -20 -20 -20 -20 -20 -20 -20 -20 -20 -20 -20 -20 -20 -20 -20 -20 -20 -20 10 3 -20 -17 -20 -20 -20 -20 -20 -20 -20 -20 -3 -13 -20 -20 -20 -20 -20 -20 -20
Wind_Speed
5 3 2 2 3 0 2 4 2 3 3 2 1 5 7 2 7 2 2 6 18 21 20 19 14 12 12 13 15 16 17 19 19 17 17 16 16 15 15 13 12 12 12 13 13 13 13 13 12
5 2 2 3 2 3 4 1 4 5 4 5 3 2 3 5 2 6 8 8 18 19 18 19 16 13 13 13 14 15 17 17 18 18 16 15 15 14 14 12 11 11 11 12 12 12 12 11 10
2 3 1 2 2 4 3 5 6 9 8 5 2 2 1 2 3 6 5 15 18 18 18 18 18 16 14 14 12 14 15 16 16 17 16 15 14 14 13 11 10 10 11 12 12 11 10 9 8
1 1 4 2 5 3 4 4 4 10 2 7 1 2 1 2 1 2 13 16 18 17 17 20 19 17 17 16 14 14 14 15 15 15 16 15 14 15 12 10 10 10 10 11 11 10 9 8 6
3 1 2 1 4 3 6 5 5 6 3 5 5 2 1 2 3 9 13 13 18 16 14 18 16 18 18 18 16 15 14 15 15 14 15 15 14 14 12 9 10 11 11 11 10 9 8 7 6
1 1 2 5 5 4 6 5 4 3 4 3 6 4 3 4 8 10 12 12 14 15 13 14 14 15 16 17 16 15 14 15 14 13 13 14 14 13 12 10 10 11 11 10 9 8 7 6 6
2 2 3 3 2 3 3 1 1 5 3 3 0 4 4 4 5 10 11 13 14 14 16 15 14 13 11 13 14 13 13 13 12 12 13 13 13 12 12 11 10 11 10 10 10 9 8 6 4
4 1 4 5 5 4 2 5 1 5 3 1 2 4 3 6 13 12 11 11 12 12 12 13 14 15 13 12 12 11 12 13 12 12 12 12 11 11 11 11 11 11 9 9 9 9 8 7 4
2 3 5 6 8 4 2 4 2 4 4 3 4 3 2 14 16 14 12 9 10 9 11 12 13 14 12 12 11 12 12 12 12 11 11 12 10 12 13 9 11 11 10 8 7 7 7 6 4
5 4 10 5 6 5 3 2 7 4 6 4 3 2 6 14 15 15 15 13 13 13 11 12 12 13 12 10 11 12 12 11 11 11 12 9 10 9 9 9 10 11 10 8 6 5 4 4 1
6 7 7 6 11 3 5 3 2 4 6 5 7 10 11 11 14 14 14 15 16 16 11 12 13 12 13 10 7 6 6 7 8 12 11 9 7 7 6 5 6 6 7 5 5 5 3 3 1
4 8 7 6 7 4 5 1 2 6 10 7 4 9 16 16 17 18 17 16 16 17 16 14 14 11 13 8 9 9 8 6 7 9 11 7 6 7 6 5 6 5 4 5 4 2 2 3 2
7 4 9 9 8 7 4 8 4 14 16 13 3 9 15 16 16 15 14 13 14 17 17 17 16 14 11 11 9 8 7 8 9 7 8 7 7 7 6 5 5 4 4 4 3 3 3 3 3
5 6 5 6 8 6 8 6 8 16 8 9 6 10 12 16 18 15 16 16 16 17 19 18 17 14 13 13 12 8 7 8 8 6 9 10 7 7 7 6 6 6 5 4 3 3 3 3 4
2 8 5 9 7 8 8 10 17 21 8 10 10 11 9 14 13 20 21 20 19 17 18 20 19 17 17 16 12 10 8 8 8 8 11 11 9 9 8 6 6 6 5 7 5 5 4 5 5
5 3 9 2 11 6 14 18 20 13 10 14 13 11 12 12 18 16 16 20 20 18 20 19 15 18 18 14 12 9 9 8 8 8 8 11 11 10 8 6 6 5 4 4 4 4 5 6 6
6 8 10 7 11 6 15 7 19 6 10 12 10 12 12 13 11 15 18 19 20 21 19 19 18 17 17 15 11 10 11 9 8 7 7 11 11 10 8 7 5 6 5 5 5 5 5 4 5
11 8 10 13 7 6 11 14 13 4 8 8 9 10 9 12 17 14 17 20 20 19 19 17 15 17 17 10 10 8 6 7 7 8 8 11 9 11 9 7 7 7 5 5 5 6 3 4 5
9 17 18 6 6 3 12 15 16 19 9 11 13 13 12 14 18 16 11 17 19 18 18 20 19 18 13 10 10 9 10 9 8 8 12 11 9 10 10 7 7 6 7 5 5 4 6 4 2
19 21 22 7 5 5 14 25 22 19 20 19 18 18 17 15 14 16 16 12 18 20 21 20 20 20 16 12 11 6 8 8 9 8 8 9 10 10 9 8 6 6 5 6 5 5 2 2 3
23 25 17 16 7 14 11 27 29 19 24 24 21 20 20 19 19 17 17 16 16 20 20 21 22 20 17 16 11 7 9 5 7 8 7 8 9 8 7 6 4 5 4 4 5 4 4 3 1
22 14 15 15 9 14 8 24 24 17 20 23 21 18 19 22 20 20 17 16 18 20 18 20 20 20 18 20 15 16 12 10 6 6 6 6 7 6 6 6 5 5 4 6 4 3 4 2 2
15 13 13 14 16 15 19 14 24 18 25 23 20 18 19 20 20 19 19 19 20 15 17 17 18 18 18 20 18 15 14 8 8 7 10 9 7 8 7 8 9 7 5 4 6 5 4 3 2
9 2 6 2 7 15 16 19 34 23 25 21 24 24 22 20 18 17 15 13 13 13 15 16 18 18 18 17 17 18 17 14 12 10 9 8 6 6 9 9 9 8 8 7 6 7 6 5 4
21 14 4 6 7 16 12 16 34 3 9 20 20 21 22 18 15 16 16 16 16 17 16 14 16 16 14 15 15 18 17 16 16 15 10 11 9 7 9 10 9 8 9 9 8 8 7 5 4
25 20 8 11 11 8 17 22 18 16 21 19 18 21 19 16 16 18 20 18 17 18 16 15 16 15 14 14 13 13 14 9 9 9 11 8 10 10 11 11 11 11 10 9 8 6 5 5 5
10 19 20 5 1 4 10 22 14 18 18 12 14 14 16 16 16 19 17 16 16 18 19 17 15 15 14 14 12 11 10 13 13 13 12 10 12 11 12 12 11 10 10 9 9 6 6 6 5
18 17 10 8 8 9 16 22 16 4 18 21 21 17 15 12 13 13 14 15 12 14 16 15 15 16 14 15 13 12 14 14 13 13 13 14 13 14 14 13 12 11 10 9 9 7 6 6 5
14 13 5 8 8 11 17 16 6 20 19 15 20 22 17 12 13 13 12 12 13 15 15 15 15 17 15 14 13 14 13 15 14 13 13 14 14 13 12 12 12 11 10 9 9 8 7 7 6
24 23 19 8 12 10 11 25 9 9 13 17 20 13 15 13 12 12 13 15 16 17 16 16 15 15 14 14 16 16 15 15 14 13 15 15 15 12 13 12 12 11 10 9 8 8 7 6 6
Wind_Direction
133 114 103 62 200 356 179 191 288 251 226 206 223 212 220 191 167 196 51 123 138 144 147 152 146 150 137 128 127 127 125 124 123 125 124 125 124 124 124 125 126 123 122 117 115 112 112 108 106
139 133 78 101 191 178 156 249 236 255 284 171 180 192 203 169 60 107 128 143 146 141 144 150 148 150 140 136 132 129 128 126 126 126 124 124 126 126 126 125 122 121 121 116 115 115 114 111 109
106 38 205 96 147 195 152 214 277 295 270 212 144 227 229 140 105 132 125 143 143 143 146 149 149 151 147 139 137 132 129 128 129 129 130 130 128 124 124 120 120 123 118 116 113 112 110 104 105
49 88 91 226 217 215 218 256 256 312 119 192 218 252 185 16 62 51 141 146 147 149 152 150 151 152 150 149 148 141 139 133 132 133 134 135 132 129 127 124 121 115 110 109 112 112 109 104 106
53 74 120 196 254 259 242 262 293 301 280 158 173 169 211 108 145 136 151 154 152 151 149 158 151 152 151 150 150 148 145 141 138 140 139 138 132 131 129 131 119 110 105 108 110 111 110 110 100
135 124 192 214 241 256 269 249 300 300 274 152 169 177 161 141 158 156 149 152 154 146 149 161 151 147 151 151 151 150 151 146 141 143 138 136 133 131 133 134 124 118 117 113 112 112 108 103 104
204 181 221 185 239 276 245 214 346 337 287 254 131 166 122 188 149 144 145 148 154 152 154 158 160 153 149 151 150 151 150 146 145 142 143 137 134 134 136 136 133 129 129 130 133 130 120 112 109
138 178 174 210 192 244 202 321 263 344 345 81 278 219 169 169 140 132 133 142 150 155 160 158 160 160 165 169 150 149 152 150 147 152 145 137 138 142 144 146 149 144 144 147 146 140 131 128 127
140 201 218 209 175 206 170 5 289 308 268 212 212 290 24 136 138 134 133 134 152 160 164 170 166 163 165 173 161 153 162 152 151 154 147 148 160 164 160 160 159 154 157 157 152 141 141 142 138
182 224 206 217 202 210 188 317 314 299 309 204 203 72 119 149 159 163 167 162 171 170 174 177 176 169 169 175 168 177 171 170 175 173 168 175 170 171 172 169 167 164 166 164 163 156 151 187 203
168 236 201 204 230 237 309 285 221 281 287 209 200 191 166 171 181 188 181 179 178 178 171 183 180 179 177 182 168 179 177 171 181 176 176 182 173 168 176 172 175 175 177 178 188 189 208 201 216
209 227 203 198 212 200 252 190 211 235 250 299 326 203 175 186 193 197 195 184 176 181 182 178 184 175 187 181 188 188 180 174 181 180 176 175 171 177 183 187 177 178 177 182 198 213 257 261 244
221 198 223 233 243 225 219 227 244 246 257 279 257 178 199 200 198 199 202 194 185 184 186 187 185 181 182 187 192 188 187 186 184 170 175 177 176 184 187 183 181 178 179 185 205 212 243 267 267
197 205 232 230 221 228 214 222 174 246 216 255 260 213 209 218 200 190 197 197 194 192 191 189 192 183 182 191 184 184 181 189 186 171 184 184 180 186 192 182 187 185 180 173 205 228 260 279 288
233 265 264 225 208 232 208 242 227 244 203 222 240 252 211 218 206 205 197 199 195 197 194 194 192 193 190 188 180 183 184 183 184 187 185 184 189 195 189 189 196 197 186 186 205 211 230 253 249
198 211 246 219 210 222 183 249 247 245 209 223 224 241 253 204 211 219 211 203 199 197 198 193 190 193 194 188 187 186 184 189 192 188 185 189 199 198 194 197 206 198 196 212 220 223 228 243 252
199 225 221 271 201 132 196 216 255 219 192 230 226 241 248 258 218 218 210 208 200 199 193 196 193 191 193 191 185 186 188 192 189 188 188 194 197 200 202 205 208 197 190 193 205 218 218 235 255
201 208 224 233 197 220 213 234 263 210 177 217 238 228 239 258 257 239 206 209 208 202 197 191 191 187 189 182 182 187 185 194 193 194 197 200 200 197 201 208 205 199 196 211 217 235 220 251 273
239 224 232 231 226 250 248 252 240 256 234 228 231 241 236 238 253 265 246 208 202 198 192 192 188 189 179 178 179 193 197 191 195 196 196 201 197 200 204 214 208 187 206 210 190 216 241 229 223
231 241 240 242 257 259 273 275 254 249 256 240 241 244 245 236 243 251 248 206 201 195 195 192 194 186 186 180 184 192 181 194 196 191 194 198 200 201 206 208 209 194 196 184 172 173 173 209 193
225 232 238 249 247 255 276 281 268 239 245 252 244 241 245 239 236 236 240 218 203 202 194 195 194 188 186 180 172 147 152 150 181 186 176 192 195 192 187 168 153 162 168 178 169 172 177 189 113
233 214 233 239 229 253 199 268 262 268 250 233 243 234 237 238 232 235 232 221 207 207 196 197 190 186 185 180 182 180 182 179 182 154 145 143 126 113 118 117 110 115 106 109 98 107 104 118 121
247 244 219 218 232 265 234 261 268 247 244 239 228 225 222 229 230 227 226 217 213 202 198 188 185 184 184 184 185 178 184 162 142 128 134 112 103 101 100 120 120 112 102 105 116 117 103 86 119
193 121 135 222 221 246 237 224 270 246 247 244 235 234 228 225 221 224 227 227 203 191 186 182 181 186 185 185 186 181 171 150 145 146 137 129 114 108 110 116 108 109 109 98 94 85 76 72 83
200 189 181 206 209 246 184 219 247 290 252 240 237 238 239 230 220 221 208 204 188 185 182 178 176 179 176 175 180 179 166 159 155 153 144 140 128 130 122 115 110 102 98 96 94 88 81 73 82
206 197 190 207 216 265 203 239 243 229 240 232 223 232 243 227 214 208 210 207 195 185 180 176 176 170 167 165 161 154 152 148 140 145 142 150 133 131 126 117 113 110 106 100 97 92 87 83 81
173 208 201 221 348 294 232 255 248 244 246 234 234 235 233 217 202 204 210 201 193 183 180 176 162 152 149 147 139 141 134 139 142 137 139 137 128 126 120 116 109 104 100 97 93 86 87 85 77
201 167 188 204 191 230 245 259 245 236 232 232 230 227 230 213 212 196 191 195 186 182 172 162 159 151 148 147 145 141 144 135 133 138 136 135 129 130 127 121 116 109 103 101 100 96 83 90 80
203 205 172 174 208 232 267 258 211 222 220 227 227 233 233 215 201 193 187 181 175 167 166 154 151 147 146 138 134 134 135 138 140 135 133 129 128 130 125 124 121 112 106 97 91 87 90 88 88
203 200 185 188 192 235 285 268 168 196 208 219 231 228 233 222 199 185 177 169 168 166 163 158 152 146 144 138 138 140 140 143 136 135 136 135 132 128 125 121 112 109 105 100 96 91 84 87 89